Year,Month,Day,Hour,Minute,Value (Times are PST for temperature in C)
2005,09,29,00,00,11.40
2005,09,29,00,01,11.30
2005,09,29,00,02,11.30
2005,09,29,00,03,11.30
2005,09,29,00,04,11.30
2005,09,29,00,05,11.30
2005,09,29,00,06,11.30
2005,09,29,00,07,11.30
2005,09,29,00,08,11.30
2005,09,29,00,09,11.30
2005,09,29,00,10,11.30
2005,09,29,00,11,11.30
2005,09,29,00,12,11.30
2005,09,29,00,13,11.30
2005,09,29,00,14,11.30
2005,09,29,00,15,11.30
2005,09,29,00,16,11.30
2005,09,29,00,17,11.30
2005,09,29,00,18,11.30
2005,09,29,00,19,11.20
2005,09,29,00,20,11.20
2005,09,29,00,21,11.20
2005,09,29,00,22,11.20
2005,09,29,00,23,11.20
2005,09,29,00,24,11.20
2005,09,29,00,25,11.20
2005,09,29,00,26,11.20
2005,09,29,00,27,11.20
2005,09,29,00,28,11.20
2005,09,29,00,29,11.20
2005,09,29,00,30,11.20
2005,09,29,00,31,11.20
2005,09,29,00,32,11.20
2005,09,29,00,33,11.20
2005,09,29,00,34,11.20
2005,09,29,00,35,11.10
2005,09,29,00,36,11.10
2005,09,29,00,37,11.10
2005,09,29,00,38,11.10
2005,09,29,00,39,11.10
2005,09,29,00,40,11.10
2005,09,29,00,41,11.10
2005,09,29,00,42,11.10
2005,09,29,00,43,11.10
2005,09,29,00,44,11.10
2005,09,29,00,45,11.10
2005,09,29,00,46,11.10
2005,09,29,00,47,11.10
2005,09,29,00,48,11.10
2005,09,29,00,49,11.10
2005,09,29,00,50,11.10
2005,09,29,00,51,11.10
2005,09,29,00,52,11.10
2005,09,29,00,53,11.10
2005,09,29,00,54,11.10
2005,09,29,00,55,11.10
2005,09,29,00,56,11.10
2005,09,29,00,57,11.00
2005,09,29,00,58,11.00
2005,09,29,00,59,11.10
2005,09,29,01,00,11.10
2005,09,29,01,01,11.00
2005,09,29,01,02,10.90
2005,09,29,01,03,10.90
2005,09,29,01,04,10.90
2005,09,29,01,05,10.90
2005,09,29,01,06,10.90
2005,09,29,01,07,10.90
2005,09,29,01,08,10.90
2005,09,29,01,09,10.90
2005,09,29,01,10,10.90
2005,09,29,01,11,10.90
2005,09,29,01,12,10.90
2005,09,29,01,13,10.90
2005,09,29,01,14,10.90
2005,09,29,01,15,10.90
2005,09,29,01,16,10.90
2005,09,29,01,17,10.90
2005,09,29,01,18,10.90
2005,09,29,01,19,10.90
2005,09,29,01,20,10.90
2005,09,29,01,21,10.90
2005,09,29,01,22,10.90
2005,09,29,01,23,10.90
2005,09,29,01,24,10.90
2005,09,29,01,25,10.90
2005,09,29,01,26,10.90
2005,09,29,01,27,10.90
2005,09,29,01,28,10.90
2005,09,29,01,29,10.90
2005,09,29,01,30,10.90
2005,09,29,01,31,10.90
2005,09,29,01,32,10.90
2005,09,29,01,33,10.90
2005,09,29,01,34,10.90
2005,09,29,01,35,10.90
2005,09,29,01,36,10.90
2005,09,29,01,37,11.00
2005,09,29,01,38,11.10
2005,09,29,01,39,11.10
2005,09,29,01,40,11.10
2005,09,29,01,41,11.10
2005,09,29,01,42,11.10
2005,09,29,01,43,11.10
2005,09,29,01,44,11.10
2005,09,29,01,45,11.10
2005,09,29,01,46,11.10
2005,09,29,01,47,11.10
2005,09,29,01,48,11.10
2005,09,29,01,49,11.10
2005,09,29,01,50,11.10
2005,09,29,01,51,11.10
2005,09,29,01,52,11.10
2005,09,29,01,53,11.10
2005,09,29,01,54,11.10
2005,09,29,01,55,11.10
2005,09,29,01,56,11.10
2005,09,29,01,57,11.10
2005,09,29,01,58,10.90
2005,09,29,01,59,10.90
2005,09,29,02,00,10.90
2005,09,29,02,01,10.90
2005,09,29,02,02,10.90
2005,09,29,02,03,10.90
2005,09,29,02,04,10.90
2005,09,29,02,05,10.90
2005,09,29,02,06,10.90
2005,09,29,02,07,10.90
2005,09,29,02,08,10.90
2005,09,29,02,09,10.90
2005,09,29,02,10,10.90
2005,09,29,02,11,10.90
2005,09,29,02,12,10.90
2005,09,29,02,13,10.90
2005,09,29,02,14,10.90
2005,09,29,02,15,10.90
2005,09,29,02,16,10.90
2005,09,29,02,17,10.90
2005,09,29,02,18,10.90
2005,09,29,02,19,10.90
2005,09,29,02,20,10.90
2005,09,29,02,21,10.80
2005,09,29,02,22,10.80
2005,09,29,02,23,10.80
2005,09,29,02,24,10.80
2005,09,29,02,25,10.80
2005,09,29,02,26,10.80
2005,09,29,02,27,10.80
2005,09,29,02,28,10.80
2005,09,29,02,29,10.80
2005,09,29,02,30,10.90
2005,09,29,02,31,10.90
2005,09,29,02,32,10.90
2005,09,29,02,33,10.90
2005,09,29,02,34,10.90
2005,09,29,02,35,11.10
2005,09,29,02,36,11.10
2005,09,29,02,37,11.10
2005,09,29,02,38,11.10
2005,09,29,02,39,11.10
2005,09,29,02,40,11.10
2005,09,29,02,41,11.10
2005,09,29,02,42,11.10
2005,09,29,02,43,11.10
2005,09,29,02,44,11.10
2005,09,29,02,45,11.10
2005,09,29,02,46,11.10
2005,09,29,02,47,11.10
2005,09,29,02,48,11.10
2005,09,29,02,49,11.10
2005,09,29,02,50,11.10
2005,09,29,02,51,11.20
2005,09,29,02,52,11.20
2005,09,29,02,53,11.20
2005,09,29,02,54,11.20
2005,09,29,02,55,11.20
2005,09,29,02,56,11.20
2005,09,29,02,57,11.20
2005,09,29,02,58,11.20
2005,09,29,02,59,11.20
2005,09,29,03,00,11.20
2005,09,29,03,01,11.20
2005,09,29,03,02,11.20
2005,09,29,03,03,11.30
2005,09,29,03,04,11.30
2005,09,29,03,05,11.30
2005,09,29,03,06,11.30
2005,09,29,03,07,11.30
2005,09,29,03,08,11.30
2005,09,29,03,09,11.40
2005,09,29,03,10,11.40
2005,09,29,03,11,11.40
2005,09,29,03,12,11.40
2005,09,29,03,13,11.40
2005,09,29,03,14,11.40
2005,09,29,03,15,11.40
2005,09,29,03,16,11.40
2005,09,29,03,17,11.40
2005,09,29,03,18,11.40
2005,09,29,03,19,11.40
2005,09,29,03,20,11.40
2005,09,29,03,21,11.40
2005,09,29,03,22,11.40
2005,09,29,03,23,11.40
2005,09,29,03,24,11.40
2005,09,29,03,25,11.40
2005,09,29,03,26,11.40
2005,09,29,03,27,11.40
2005,09,29,03,28,11.40
2005,09,29,03,29,11.40
2005,09,29,03,30,11.40
2005,09,29,03,31,11.40
2005,09,29,03,32,11.40
2005,09,29,03,33,11.50
2005,09,29,03,34,11.50
2005,09,29,03,35,11.60
2005,09,29,03,36,11.60
2005,09,29,03,37,11.60
2005,09,29,03,38,11.60
2005,09,29,03,39,11.60
2005,09,29,03,40,11.60
2005,09,29,03,41,11.60
2005,09,29,03,42,11.60
2005,09,29,03,43,11.60
2005,09,29,03,44,11.60
2005,09,29,03,45,11.60
2005,09,29,03,46,11.60
2005,09,29,03,47,11.60
2005,09,29,03,48,11.60
2005,09,29,03,49,11.60
2005,09,29,03,50,11.60
2005,09,29,03,51,11.60
2005,09,29,03,52,11.60
2005,09,29,03,53,11.60
2005,09,29,03,54,11.60
2005,09,29,03,55,11.60
2005,09,29,03,56,11.60
2005,09,29,03,57,11.60
2005,09,29,03,58,11.60
2005,09,29,03,59,11.60
2005,09,29,04,00,11.60
2005,09,29,04,01,11.60
2005,09,29,04,02,11.60
2005,09,29,04,03,11.60
